Weather History for Warsaw, IN

Change the Weather History Date:

Tuesday, March 5, 2013

  Actual Average Record
Temperature  
Mean Temperature 30 °F -  
Max Temperature 32 °F 44 °F 77 °F (1983)
Min Temperature 28 °F 25 °F -5 °F (1978)
Degree Days  
Heating Degree Days 35    
Moisture  
Dew Point 27 °F    
Average Humidity 87    
Maximum Humidity 100    
Minimum Humidity 69    
Precipitation  
Precipitation 0.17 in - - ()
Sea Level Pressure  
Sea Level Pressure 29.86 in    
Wind  
Wind Speed 11 mph (ENE)    
Max Wind Speed 17 mph    
Max Gust Speed 28 mph    
Visibility 5 miles    
Events Snow    
Averages and records for this station are not official NWS values.
T = Trace of Precipitation, MM = Missing Value Source: NWS Daily Summary

Daily Weather History Graph

Daily Weather History Graph

Search for Another Location

Airport:

Trip Planner

Search our weather history database for the weather conditions in past years. The results will help you decide how hot, cold, wet, or windy it might be!

Date:

Astronomy

Mar. 05, 2013 Rise Set
Actual Time 7:11 AM EST 6:39 PM EST
Civil Twilight 6:43 AM EST 7:06 PM EST
Nautical Twilight 6:11 AM EST 7:38 PM EST
Astronomical Twilight 5:39 AM EST 8:10 PM EST
Moon 2:25 AM EST (3/5) 12:14 PM EST (3/5)
Length of Visible Light 12h 23m
Length of Day
11h 28m
Last Quarter, 41% of the Moon is Illuminated
Mar 5
Last Quarter
Mar 11
New
Mar 19
First Quarter
Mar 27
Full
Apr 3
Last Quarter

Hourly Weather History & Observations

Time (EST) Temp. Windchill Dew Point Humidity Pressure Visibility Wind Dir Wind Speed Gust Speed Precip Events Conditions
12:15 AM 30.2 °F 24.3 °F 28.4 °F 93% 30.06 in 5.0 mi ESE 5.8 mph - N/A Snow Light Snow
12:35 AM 30.2 °F 23.4 °F 28.4 °F 93% 30.05 in 7.0 mi East 6.9 mph - N/A   Overcast
12:55 AM 30.2 °F 21.3 °F 28.4 °F 93% 30.04 in 5.0 mi East 10.4 mph - N/A Snow Light Snow
1:15 AM 30.2 °F 22.6 °F 28.4 °F 93% 30.03 in 4.0 mi East 8.1 mph - N/A Snow Light Snow
1:35 AM 30.2 °F 22.6 °F 28.4 °F 93% 30.02 in 3.0 mi East 8.1 mph - N/A Snow Light Snow
1:55 AM 30.2 °F 22.6 °F 28.4 °F 93% 30.01 in 3.0 mi East 8.1 mph - N/A Snow Light Snow
2:15 AM 30.2 °F 21.9 °F 28.4 °F 93% 30.00 in 7.0 mi East 9.2 mph - N/A Snow Light Snow
2:35 AM 30.2 °F 22.6 °F 28.4 °F 93% 30.00 in 7.0 mi East 8.1 mph - N/A   Overcast
2:55 AM 32.0 °F 24.8 °F 28.4 °F 87% 30.00 in 10.0 mi East 8.1 mph - N/A   Overcast
3:15 AM 32.0 °F 24.2 °F 28.4 °F 87% 29.99 in 10.0 mi East 9.2 mph - N/A   Overcast
3:35 AM 30.2 °F 21.3 °F 28.4 °F 93% 29.98 in 10.0 mi East 10.4 mph - N/A   Overcast
3:55 AM 30.2 °F 21.3 °F 26.6 °F 86% 29.97 in 10.0 mi East 10.4 mph - N/A   Overcast
4:15 AM 30.2 °F 21.9 °F 26.6 °F 86% 29.96 in 10.0 mi East 9.2 mph - N/A   Overcast
4:35 AM 30.2 °F 21.9 °F 26.6 °F 86% 29.95 in 10.0 mi East 9.2 mph - N/A   Overcast
4:55 AM 30.2 °F 21.3 °F 26.6 °F 86% 29.95 in 10.0 mi East 10.4 mph - N/A   Overcast
5:15 AM 30.2 °F 20.8 °F 26.6 °F 86% 29.95 in 10.0 mi East 11.5 mph - N/A   Overcast
5:35 AM 32.0 °F 22.5 °F 26.6 °F 80% 29.95 in 10.0 mi East 12.7 mph 17.3 mph N/A   Overcast
5:55 AM 32.0 °F 22.5 °F 26.6 °F 80% 29.94 in 10.0 mi East 12.7 mph 20.7 mph N/A   Overcast
6:15 AM 32.0 °F 22.5 °F 24.8 °F 75% 29.94 in 10.0 mi East 12.7 mph - N/A   Overcast
6:35 AM 32.0 °F 22.1 °F 24.8 °F 75% 29.93 in 10.0 mi East 13.8 mph 20.7 mph N/A   Overcast
6:55 AM 32.0 °F 22.1 °F 23.0 °F 69% 29.94 in 10.0 mi ESE 13.8 mph - N/A   Overcast
7:15 AM 32.0 °F 21.6 °F 23.0 °F 69% 29.94 in 10.0 mi ESE 15.0 mph 19.6 mph N/A   Overcast
7:35 AM 32.0 °F 21.6 °F 23.0 °F 69% 29.93 in 10.0 mi ESE 15.0 mph 20.7 mph N/A   Overcast
7:55 AM 32.0 °F 22.5 °F 23.0 °F 69% 29.93 in 10.0 mi ESE 12.7 mph 19.6 mph N/A   Overcast
8:15 AM 32.0 °F 21.6 °F 23.0 °F 69% 29.93 in 10.0 mi East 15.0 mph - N/A   Overcast
8:35 AM 32.0 °F 21.2 °F 24.8 °F 75% 29.92 in 10.0 mi ESE 16.1 mph - N/A   Overcast
8:55 AM 32.0 °F 21.6 °F 23.0 °F 69% 29.92 in 10.0 mi East 15.0 mph - N/A   Overcast
9:15 AM 32.0 °F 22.5 °F 24.8 °F 75% 29.91 in 10.0 mi East 12.7 mph 19.6 mph N/A   Overcast
9:35 AM 32.0 °F 22.1 °F 24.8 °F 75% 29.91 in 10.0 mi ESE 13.8 mph 18.4 mph N/A   Overcast
9:55 AM 32.0 °F 21.2 °F 23.0 °F 69% 29.90 in 10.0 mi ESE 16.1 mph 27.6 mph N/A   Overcast
10:15 AM 32.0 °F 22.1 °F 24.8 °F 75% 29.90 in 10.0 mi East 13.8 mph 20.7 mph N/A   Overcast
10:35 AM 32.0 °F 21.2 °F 23.0 °F 69% 29.89 in 10.0 mi East 16.1 mph 26.5 mph N/A   Overcast
11:15 AM 32.0 °F 22.5 °F 24.8 °F 75% 29.88 in 5.0 mi ESE 12.7 mph 20.7 mph N/A Snow Light Snow
11:35 AM 32.0 °F 21.6 °F 26.6 °F 80% 29.87 in 1.5 mi East 15.0 mph 21.9 mph N/A Snow Light Snow
11:55 AM 32.0 °F 22.1 °F 28.4 °F 87% 29.85 in 1.5 mi East 13.8 mph - N/A Snow Light Snow
12:15 PM 32.0 °F 21.6 °F 28.4 °F 87% 29.84 in 2.0 mi East 15.0 mph 21.9 mph N/A Snow Light Snow
12:35 PM 32.0 °F 20.8 °F 28.4 °F 87% 29.84 in 2.5 mi East 17.3 mph 23.0 mph N/A Snow Light Snow
12:55 PM 32.0 °F 21.6 °F 28.4 °F 87% 29.83 in 5.0 mi East 15.0 mph 20.7 mph N/A   Overcast
1:15 PM 32.0 °F 21.2 °F 28.4 °F 87% 29.81 in 3.0 mi East 16.1 mph 21.9 mph N/A Snow Light Snow
1:35 PM 32.0 °F 21.6 °F 28.4 °F 87% 29.80 in 2.0 mi East 15.0 mph 19.6 mph N/A Snow Light Snow
1:55 PM 32.0 °F 21.6 °F 28.4 °F 87% 29.78 in 1.0 mi East 15.0 mph 20.7 mph N/A Snow Light Snow
2:15 PM 30.2 °F 20.2 °F 28.4 °F 93% 29.78 in 0.8 mi East 12.7 mph - N/A Snow Light Snow
2:35 PM 30.2 °F 19.8 °F 28.4 °F 93% 29.76 in 0.8 mi East 13.8 mph - N/A Snow Light Snow
2:55 PM 30.2 °F 20.2 °F 28.4 °F 93% 29.75 in 1.0 mi East 12.7 mph - N/A Snow Light Snow
3:15 PM 30.2 °F 19.3 °F 28.4 °F 93% 29.75 in 1.0 mi East 15.0 mph 18.4 mph N/A Snow Light Snow
3:35 PM 30.2 °F 19.3 °F 28.4 °F 93% 29.74 in 1.0 mi East 15.0 mph - N/A Snow Light Snow
3:55 PM 30.2 °F 19.3 °F 28.4 °F 93% 29.73 in 0.8 mi ENE 15.0 mph 18.4 mph N/A Snow Light Snow
4:15 PM 30.2 °F 21.3 °F 28.4 °F 93% 29.73 in 0.8 mi ENE 10.4 mph - N/A Snow Light Snow
4:35 PM 30.2 °F 21.9 °F 28.4 °F 93% 29.73 in 0.5 mi ENE 9.2 mph 19.6 mph N/A Snow Snow
4:55 PM 30.2 °F 21.3 °F 28.4 °F 93% 29.73 in 0.5 mi NE 10.4 mph - N/A Snow Snow
5:15 PM 30.2 °F 21.9 °F 28.4 °F 93% 29.73 in 0.5 mi NE 9.2 mph - N/A Snow Snow
5:35 PM 28.4 °F 19.7 °F 28.4 °F 100% 29.73 in 0.5 mi NE 9.2 mph - N/A Snow Snow
5:55 PM 28.4 °F 18.0 °F 26.6 °F 93% 29.74 in 0.5 mi NE 12.7 mph 17.3 mph N/A Snow Snow
6:15 PM 28.4 °F 18.0 °F 26.6 °F 93% 29.74 in 0.2 mi NE 12.7 mph 17.3 mph N/A Snow Snow
6:35 PM 28.4 °F 17.5 °F 26.6 °F 93% 29.74 in 0.2 mi NE 13.8 mph 18.4 mph N/A Snow Snow
6:55 PM 28.4 °F 17.5 °F 26.6 °F 93% 29.74 in 0.5 mi NE 13.8 mph 18.4 mph 0.01 in Snow Snow
7:15 PM 28.4 °F 17.5 °F 26.6 °F 93% 29.74 in 0.8 mi NE 13.8 mph 18.4 mph 0.02 in Snow Snow
7:35 PM 28.4 °F 17.0 °F 26.6 °F 93% 29.73 in 0.8 mi NE 15.0 mph 20.7 mph 0.04 in Snow Snow
7:55 PM 28.4 °F 18.5 °F 26.6 °F 93% 29.73 in 1.0 mi NE 11.5 mph 18.4 mph 0.06 in Snow Light Snow
8:15 PM 28.4 °F 19.7 °F 26.6 °F 93% 29.74 in 1.2 mi NE 9.2 mph 18.4 mph 0.02 in Snow Light Snow
8:35 PM 28.4 °F 21.2 °F 28.4 °F 100% 29.75 in 1.0 mi NE 6.9 mph - 0.03 in Snow Snow
8:55 PM 28.4 °F 19.1 °F 28.4 °F 100% 29.76 in 1.2 mi NE 10.4 mph - 0.03 in Snow Light Snow
9:15 PM 30.2 °F 21.9 °F 28.4 °F 93% 29.76 in 1.5 mi NNE 9.2 mph - 0.01 in Snow Light Snow
9:35 PM 30.2 °F 22.6 °F 28.4 °F 93% 29.77 in 1.8 mi NNE 8.1 mph - 0.02 in Snow Light Snow
9:55 PM 30.2 °F 22.6 °F 28.4 °F 93% 29.77 in 1.8 mi NNE 8.1 mph - 0.03 in Snow Light Snow
10:15 PM 30.2 °F 22.6 °F 28.4 °F 93% 29.78 in 1.5 mi NNE 8.1 mph - 0.01 in Snow Light Snow
10:35 PM 30.2 °F 22.6 °F 28.4 °F 93% 29.78 in 1.8 mi North 8.1 mph - 0.01 in Snow Light Snow
10:55 PM 30.2 °F 21.9 °F 28.4 °F 93% 29.79 in 1.5 mi North 9.2 mph - 0.02 in Snow Light Snow
11:15 PM 30.2 °F 21.9 °F 28.4 °F 93% 29.79 in 2.0 mi North 9.2 mph 17.3 mph N/A Snow Light Snow
11:35 PM 28.4 °F 17.5 °F 28.4 °F 100% 29.80 in 1.2 mi NNE 13.8 mph 23.0 mph 0.01 in Snow Light Snow
11:55 PM 28.4 °F 17.5 °F 26.6 °F 93% 29.81 in 1.2 mi North 13.8 mph 21.9 mph 0.02 in Snow Light Snow